User: anonymous   Login
Location: Unspecified
(0.0000°N, 0.0000°E)
Time: 13:54:08
(UTC+00:00)
Language:

MAROC-TUBSAT - Orbit

View from above orbital plane
View from above orbital plane
View from above satellite
View from above satellite

Ground track
Ground track

The orbit data is extracted from the following two-line orbital elements,

1 27004U 01056D   18349.95939056 -.00000042 +00000-0 +19475-5 0  9994
2 27004 099.4381 121.9287 0019812 000.4326 107.6469 13.70132073850929
Epoch (UTC): 15 December 2018 23:01:31
Eccentricity: 0.0019812
inclination: 99.4381°
perigee height: 984 km
apogee height: 1014 km
right ascension of ascending node: 121.9287°
argument of perigee: 0.4326°
revolutions per day: 13.70132073
mean anomaly at epoch: 107.6469°
orbit number at epoch: 85092

The dashed part of the orbit path shows where the satellite is in the earth's shadow,  

DLR